Location: Bougoura
(13.1861°N, 5.0773°W)
Time: 03:12:37
(UTC+00:00)

H-2A R/B - Pass Details

Date: 18 September 2020
Orbit: 734 x 836 km, 98.2° (Epoch: 23 October)

Event Time Altitude Azimuth Distance (km) Brightness Sun altitude
Exits shadow 19:08:49 14° 124° (SE) 1,962 3.6 -12.9°
Maximum altitude 19:12:00 26° 75° (ENE) 1,420 2.9 -13.7°
Drops below altitude 10° 19:16:02 10° 19° (NNE) 2,246 4.3 -14.7°
Sets 19:18:39 0° 7° (N) 3,180 5.2 -15.3°
